Content
SEND FEEDBACK

Daily
Averages
Monthly
Summary
United States of America

RED BLUFF, CALIFORNIA


Home > North America > United States > California
Elevation: 344 feet     Latitude: 40 09N     Longitude: 122 15W

WEATHER
 
SELECT A DAY
Number of Records: 183,041;   Date Range: 1/1/95 - 8/30/14
 
SHARE

PRINT THIS DATA

[ ← Previous Day ]
WEATHER ALMANAC - JULY 23, 2013
[ Next Day → ]
[ °C ]   °F
Weather ElementAverageHighLow
Temperature84.1 °F97 °F (3:54 pm)71.1 °F (2:54 am)
Dewpoint47.8 °F60.1 °F (10:54 pm)42.1 °F (10:54 am)
Humidity30 %49 % (11:54 pm)16 % (2:54 pm)
Barometer29.91 in29.96 in (7:54 am)29.86 in (4:54 pm)
Wind Speed7.8 mph15 mph (8:54 am)
Wind Gust21.9 mph (3:54 pm)
Weather ElementAverage
Visibility10 mi
Wind DirectionSE (130 °)

Weather ElementTotal
Precipitation---
Cooling Degree Days19.1 (Base 65)
Growing Degree Days34.1 (Base 50)
Averaged from 23 records on July 23, 2013
WEATHER CONDITIONS BREAKOUT
WIND DIRECTION BREAKOUT
WEATHER BY HOUR - JULY 23, 2013
[ °C ]   °F
Local TimeTemperatureDewpointHumidityBarometerVisibilityWind DirectionWind SpeedGust SpeedPrecipitationEventsConditions
1:54 AM75.9 °F44.1 °F32 %29.94 in10.0 miCalmClear
2:54 AM71.1 °F46.0 °F41 %29.92 in10.0 miNNE (20°)3.5 mphClear
3:54 AM72.0 °F46.0 °F40 %29.91 in10.0 miNNW (340°)8.1 mphClear
4:54 AM75.0 °F44.1 °F33 %29.89 in10.0 miNorth (10°)10.4 mphClear
5:54 AM73.9 °F44.1 °F34 %29.89 in10.0 miNorth (350°)5.8 mphClear
6:54 AM73.9 °F46.0 °F37 %29.93 in10.0 miSW (230°)4.6 mphClear
7:54 AM73.9 °F48.0 °F40 %29.96 in10.0 miSE (130°)12.7 mphClear
8:54 AM77.0 °F46.9 °F34 %29.96 in10.0 miSSE (150°)15.0 mphClear
9:54 AM81.0 °F45.0 °F28 %29.95 in10.0 miSouth (170°)8.1 mphClear
10:54 AM84.0 °F42.1 °F23 %29.95 in10.0 miVariable5.8 mphClear
11:54 AM89.1 °F42.1 °F19 %29.93 in10.0 miCalmClear
12:54 PM93.0 °F45.0 °F19 %29.91 in10.0 miSSE (160°)10.4 mphClear
1:54 PM95.0 °F43.0 °F17 %29.91 in10.0 miVariable6.9 mphClear
2:54 PM96.1 °F43.0 °F16 %29.89 in10.0 miSouth (180°)11.5 mph19.6 mphClear
3:54 PM97.0 °F44.1 °F16 %29.88 in10.0 miSSE (150°)15.0 mph21.9 mphClear
4:54 PM96.1 °F43.0 °F16 %29.86 in10.0 miSSE (150°)12.7 mphClear
5:54 PM93.9 °F48.0 °F21 %29.86 in10.0 miESE (120°)13.8 mphClear
6:54 PM93.0 °F48.9 °F22 %29.86 in10.0 miSouth (180°)11.5 mphClear
7:54 PM91.0 °F52.0 °F26 %29.86 in10.0 miSouth (190°)9.2 mphClear
8:54 PM86.0 °F57.9 °F38 %29.88 in10.0 miSE (130°)5.8 mphClear
9:54 PM82.9 °F59.0 °F44 %29.89 in10.0 miSE (130°)5.8 mphClear
10:54 PM82.9 °F60.1 °F46 %29.90 in10.0 miCalmClear
11:54 PM81.0 °F60.1 °F49 %29.92 in10.0 miSSW (200°)3.5 mphClear
Hourly data recorded from KRBL, located miles away from Red Bluff, California







STORIES FROM OUR PARTNERS